Regional Weather Roundup
Issued by NWS

Home | Current Version | Previous Version | Text Only | Print | Product List | Glossary Off
Versions: 1 2 3 4 5 6 7 8 9 10 11 12 13 14 15 16 17 18 19 20 21 22 23 24 25 26 27 28 29 30 31 32 33 34 35 36 37 38 39 40 41 42 43 44 45 46 47 48 49 50

000
ASUS43 KOAX 291510
RWRNE

WEATHER ROUNDUP FOR NEBRASKA
NATIONAL WEATHER SERVICE OMAHA NE
1000 AM CDT MON MAY 29 2017

NOTES: SATELLITE DATA IS BEING USED TO AUGMENT CLOUD COVER ABOVE
       12000 FEET.
       "FAIR" INDICATES FEW OR NO CLOUDS BELOW 12,000 FEET WITH NO
       SIGNIFICANT WEATHER AND/OR OBSTRUCTIONS TO VISIBILITY.

  * THESE STATIONS DO NOT REPORT WEATHER SUCH AS RAIN...SNOW OR FOG.

NEZ001>004-019>022-054>056-291600-
NEBRASKA PANHANDLE

CITY           SKY/WX    TMP DP  RH WIND       PRES   REMARKS
SCOTTSBLUFF    SUNNY     60  45  57 W10       30.21R
ALLIANCE       SUNNY     59  44  57 NW14      30.18R
CHADRON        SUNNY     58  43  57 W8        30.18S
GORDON         FAIR      57  37  46 N8        30.17R
KIMBALL        SUNNY     60  41  48 NW12G20   30.24S
SIDNEY         SUNNY     61  47  59 NW13      30.22R
$$

NEZ057>060-069>072-079>082-291600-
SOUTHWEST NEBRASKA

CITY           SKY/WX    TMP DP  RH WIND       PRES   REMARKS
NORTH PLATTE   SUNNY     64  48  56 NW9       30.14S
IMPERIAL       SUNNY     64  45  49 N13       30.17S
LEXINGTON      SUNNY     65  49  56 NW8       30.12R
MCCOOK         SUNNY     66  47  50 NW9       30.14R
OGALLALA       SUNNY     63  48  58 NW12      30.17R
$$

NEZ005>010-023>029-035>040-094-291600-
NORTH CENTRAL NEBRASKA

CITY           SKY/WX    TMP DP  RH WIND       PRES   REMARKS
VALENTINE      SUNNY     60  39  45 NW15      30.13R
AINSWORTH      SUNNY     59  41  52 NW15      30.12R
BROKEN BOW     SUNNY     64  40  41 N20       30.11R
O`NEILL        SUNNY     61  40  45 NW16G23   30.09R
ORD            SUNNY     64  44  48 N10       30.08R
THEDFORD       SUNNY     62  39  42 N10       30.15R
$$

NEZ041-046>049-061>064-073>077-083>087-291600-
SOUTH CENTRAL NEBRASKA

CITY           SKY/WX    TMP DP  RH WIND       PRES   REMARKS
GRAND ISLAND   SUNNY     67  50  54 N15       30.08R
AURORA         SUNNY     66  47  49 NW10      30.07R
HASTINGS       SUNNY     66  48  52 NW9       30.08R
HEBRON         SUNNY     67  51  56 NW7       30.05S
HOLDREGE       SUNNY     63  47  55 NW8       30.10R
KEARNEY *      SUNNY     64  46  52 NW10      30.10R
YORK           SUNNY     66  46  48 NW12      30.05R
$$

NEZ011>018-030>034-042>045-291600-
NORTHEAST NEBRASKA

CITY           SKY/WX    TMP DP  RH WIND       PRES   REMARKS
NORFOLK        SUNNY     63  44  50 NW13      30.04R
ALBION         SUNNY     65  45  49 NW13      30.06R
BLAIR          SUNNY     67  47  48 NW7       30.00R
FREMONT        SUNNY     68  48  48 W10       30.01S
TEKAMAH        SUNNY     70  43  37 NW17      29.98S
WAYNE          SUNNY     64  44  48 NW14      30.02R
$$

NEZ050>053-065>068-078-088>093-291600-
SOUTHEAST NEBRASKA

CITY           SKY/WX    TMP DP  RH WIND       PRES   REMARKS
LINCOLN        SUNNY     70  51  51 W7        30.02R
OMAHA EPPLEY   MOSUNNY   69  48  47 NW8       29.99R
BEATRICE       SUNNY     68  52  56 NW6       30.02S
FALLS CITY     SUNNY     68  52  56 N8        30.00R
NEBRASKA CITY  SUNNY     70  43  38 NW3       30.00R
PLATTSMOUTH    SUNNY     69  48  46 NW6       30.00R
$$

NEZ044-045-051>053-067-291600-
OMAHA AREA

CITY           SKY/WX    TMP DP  RH WIND       PRES   REMARKS
OMAHA EPPLEY   MOSUNNY   69  48  47 NW8       29.99R
BLAIR          SUNNY     67  47  48 NW7       30.00R
FREMONT        SUNNY     68  48  48 W10       30.01S
MILLARD        SUNNY     68  50  52 NW9       30.00R
OFFUTT AFB     SUNNY     68  50  51 W9        29.99R
PLATTSMOUTH    SUNNY     69  48  46 NW6       30.00R
WAHOO          FAIR      68  46  45 NW13      30.01R
$$



USA.gov is the U.S. government's official web portal to all federal, state and local government web resources and services.